Theta_e
314 313 315 316 320 319 322 328 327 328 328 324 323 322 319 321 323 325 325 325 324 324 324 324 328 329 330 332 335 335 332 337 339 334 333 333 334 335 335 333 330 326 329 331 327 330 336 337 336 336 336 334 330 327 329 333 335 333 331 331 333 333 333 333 331 331 331 332 331 332 332 332 332 332 332 331 331 331 332 332 333 333 333 333 333 333 333 333 334 331 330 331 331 331 331 331 331
314 314 316 316 320 316 322 328 328 333 332 322 322 322 318 320 324 327 329 328 326 327 329 329 331 332 332 331 330 333 331 333 331 330 334 334 336 335 335 333 327 326 330 330 327 329 335 336 335 336 335 335 331 327 329 331 332 332 331 331 331 331 333 333 332 332 331 332 331 331 332 331 331 332 332 331 331 331 332 333 333 333 332 333 333 334 333 333 333 331 330 331 330 331 331 330 329
314 316 317 317 320 318 327 327 325 330 326 320 325 323 317 323 328 329 330 326 325 327 332 330 333 332 328 328 327 331 332 330 329 332 336 336 336 335 335 332 326 328 328 326 325 329 334 335 335 336 335 335 332 330 330 329 331 333 332 331 331 331 331 332 333 332 331 332 331 331 331 331 332 332 332 332 332 331 332 332 332 332 332 333 333 333 333 332 332 331 330 331 330 330 330 329 328
315 319 316 318 322 325 341 334 330 330 320 321 323 321 322 327 329 330 326 323 327 328 329 328 331 327 324 329 329 330 334 332 332 335 337 335 336 336 334 330 329 329 324 324 325 328 333 335 335 335 335 335 333 333 332 330 333 331 330 332 331 331 331 332 333 332 332 332 331 331 331 330 331 332 332 332 331 331 332 331 332 332 332 333 333 333 332 332 332 330 331 330 330 329 329 328 327
317 320 315 320 324 327 336 327 329 328 319 324 320 320 325 327 329 328 322 323 328 325 326 332 332 327 326 332 331 330 332 333 334 335 337 337 336 335 333 331 330 326 321 323 324 327 332 335 335 335 335 335 334 333 332 330 331 327 327 331 331 330 331 332 331 331 333 333 331 330 331 330 330 332 332 330 331 331 332 332 332 333 333 333 333 333 333 332 330 329 330 330 330 329 328 327 325
317 319 317 319 319 319 325 320 322 325 325 327 321 321 324 323 326 326 322 323 325 320 323 331 332 331 333 332 329 329 330 333 335 335 337 337 336 334 333 331 328 323 321 322 322 326 332 334 334 334 334 334 334 333 331 330 330 326 326 329 330 330 330 331 332 331 333 334 332 331 332 330 329 331 331 329 329 331 332 332 332 332 333 333 333 332 332 331 329 329 329 329 328 327 326 324 323
316 318 322 322 320 321 327 326 328 330 325 321 320 320 321 322 322 325 325 324 324 320 323 330 330 332 334 330 330 331 331 333 334 336 337 336 335 334 333 330 327 323 321 321 322 326 330 333 333 334 334 334 333 333 332 332 331 328 327 327 326 330 331 331 332 331 332 334 333 332 330 328 328 328 329 329 329 331 332 332 331 331 332 332 332 331 331 331 329 329 329 328 327 325 324 323 322
317 320 325 329 328 329 332 328 330 331 319 315 318 318 321 321 321 326 327 326 324 323 330 334 331 331 330 329 335 333 330 333 334 336 336 336 335 333 333 329 326 323 320 320 322 325 328 331 332 333 333 334 334 334 334 334 333 330 331 329 324 326 330 330 329 329 331 333 333 332 330 328 327 326 328 330 330 331 331 331 330 330 331 331 331 331 331 330 328 329 329 327 325 324 324 323 321
317 319 324 329 327 329 332 326 323 324 321 320 319 319 323 320 320 327 327 324 322 328 337 334 331 325 327 334 339 332 330 334 334 336 336 336 335 333 332 329 326 323 321 320 321 324 328 331 331 332 333 333 334 334 334 334 333 331 333 331 324 323 328 330 328 329 331 332 332 332 330 328 328 328 329 329 329 330 331 331 330 330 331 330 330 330 330 329 328 329 329 327 325 324 324 322 321
318 319 323 329 329 324 324 327 324 321 322 322 318 319 324 321 320 325 327 323 323 333 336 330 331 326 331 340 338 331 331 334 334 336 336 336 335 333 331 329 326 321 321 320 320 324 329 331 330 330 331 333 333 334 334 333 333 333 333 333 328 323 324 329 329 329 330 330 331 331 330 328 328 330 330 329 328 328 329 330 330 330 330 330 329 329 329 329 328 329 329 326 325 324 323 322 322
321 327 329 331 329 324 321 328 333 328 324 320 319 320 320 320 321 324 324 322 324 331 331 327 332 338 340 339 334 331 331 334 336 336 336 336 335 333 330 330 327 321 319 318 319 324 329 331 329 328 328 331 333 333 334 333 333 333 334 333 330 327 323 326 329 328 328 330 330 330 330 328 328 329 329 329 329 328 328 329 330 330 329 329 329 329 328 328 328 328 327 325 325 324 323 323 322
321 331 339 334 326 325 324 327 333 335 331 323 323 323 318 319 322 324 323 323 324 327 329 326 329 339 347 344 334 331 332 335 335 335 336 336 335 332 330 331 328 322 319 317 319 324 328 329 328 328 327 327 331 333 333 333 334 333 334 333 332 331 325 324 328 328 327 330 329 329 329 327 328 329 328 329 329 329 328 328 329 330 329 328 328 328 328 327 327 327 326 325 325 324 323 323 323
327 332 334 326 321 323 322 324 329 331 331 325 320 319 317 319 323 324 325 327 325 328 326 322 328 333 341 341 331 329 332 335 335 336 336 335 335 332 331 331 328 324 321 318 320 323 324 325 325 327 325 323 328 333 332 332 333 333 333 334 332 332 327 322 325 327 325 329 329 329 329 327 327 328 328 328 328 328 327 327 328 329 329 328 328 327 327 327 326 326 325 325 325 324 323 323 323
329 334 331 322 320 325 324 322 323 322 323 323 318 317 318 320 324 324 324 326 326 328 321 318 329 332 332 330 329 335 334 333 335 336 335 336 335 332 332 331 328 325 324 321 320 321 324 324 322 324 324 320 326 332 332 331 332 333 333 333 332 332 328 319 321 325 323 326 329 328 328 326 326 327 327 327 327 327 327 327 327 328 328 328 327 327 327 326 325 325 325 325 324 324 323 323 323
323 334 334 328 323 324 324 320 322 322 322 323 316 315 319 317 319 324 323 326 325 320 316 320 326 324 326 325 328 337 333 333 336 334 334 335 334 332 332 331 330 328 326 324 322 323 324 323 322 322 322 320 324 331 332 331 331 332 332 332 333 331 324 316 318 322 321 324 329 328 327 325 326 326 325 325 326 326 326 326 327 326 327 327 327 326 326 325 325 325 325 325 324 323 323 323 323
322 333 332 328 323 320 320 319 321 322 322 322 314 313 321 316 314 320 317 321 323 318 324 328 321 322 327 323 323 328 331 335 334 334 334 334 334 332 332 331 331 330 328 326 325 325 324 322 321 320 321 321 322 328 331 331 329 329 331 332 331 326 319 314 316 320 320 323 328 328 327 325 325 325 323 323 324 324 324 324 326 326 326 326 327 326 325 325 325 325 325 325 324 323 323 323 323
320 328 330 326 324 321 321 320 319 318 322 321 314 314 322 319 312 313 312 318 325 326 335 331 319 325 330 325 324 326 333 335 334 334 333 334 334 332 332 331 331 331 329 328 327 327 324 322 322 322 321 322 324 327 329 329 327 327 330 330 327 322 316 315 315 317 318 321 326 327 325 324 325 325 322 322 321 320 321 322 324 324 325 326 325 325 325 325 325 325 324 324 324 323 323 323 323
322 329 329 325 326 325 323 323 319 317 319 317 314 315 321 323 315 312 314 323 328 328 334 331 325 327 327 327 326 329 334 334 334 334 334 334 334 333 332 331 331 332 330 329 329 328 326 322 322 323 321 323 325 326 326 326 325 324 326 324 321 319 316 316 315 316 317 319 323 323 323 323 324 324 322 322 319 317 319 321 322 322 324 324 323 323 324 325 325 324 324 324 323 323 323 323 323
328 328 325 329 330 324 321 319 317 316 315 316 315 315 319 322 316 315 316 323 328 327 330 330 333 331 328 328 328 331 334 334 334 334 335 334 334 334 332 332 331 331 331 330 329 329 327 323 321 323 321 322 324 324 324 322 322 321 321 320 318 318 317 316 316 315 315 316 319 320 321 321 322 323 322 322 320 317 318 319 320 320 321 322 323 323 324 324 325 325 324 323 323 323 323 323 323
324 322 324 341 334 321 318 317 317 314 313 315 315 313 316 318 315 315 319 326 329 326 326 329 334 336 336 331 327 332 334 334 335 334 335 334 335 334 332 332 331 331 331 330 330 329 328 323 321 322 321 321 323 323 322 320 320 319 318 318 318 317 317 316 316 315 314 314 316 317 318 318 320 322 322 322 321 319 317 316 317 316 318 321 322 323 323 324 324 325 324 323 323 322 323 323 323
315 315 330 346 331 320 319 317 317 314 311 314 316 314 314 315 314 315 320 325 327 324 323 325 329 337 339 330 328 333 334 335 335 335 335 334 335 334 333 332 332 332 331 331 330 330 328 324 321 322 321 321 323 323 321 320 319 319 318 318 317 317 317 317 317 316 315 313 313 314 315 315 317 320 321 321 321 320 318 316 315 314 316 319 321 322 323 323 324 324 324 324 324 323 323 323 323
316 316 330 336 322 318 320 314 314 313 311 314 316 315 314 314 312 317 321 319 321 322 322 324 323 331 337 331 329 333 334 335 335 335 336 335 335 334 334 333 333 334 332 331 330 330 330 326 322 322 321 320 321 322 321 320 319 319 319 318 317 317 317 318 317 317 316 315 314 314 313 313 314 317 319 320 320 320 319 318 316 315 315 317 319 320 321 322 323 323 324 324 324 324 323 323 323
328 328 327 327 318 317 318 313 313 312 311 315 316 314 313 314 313 317 320 318 317 315 315 317 318 325 331 329 329 333 334 335 335 336 336 335 335 334 334 334 334 334 333 332 331 331 330 328 325 322 322 321 320 321 321 321 320 319 319 318 318 318 318 318 318 318 317 316 316 315 313 312 312 313 316 317 317 317 318 318 317 316 315 315 316 318 319 320 321 322 322 323 322 322 322 322 322
325 328 325 323 315 315 315 313 314 312 313 315 313 312 312 316 315 315 318 318 315 314 312 310 317 324 327 329 330 332 333 335 335 335 336 335 335 334 335 334 334 335 334 333 332 331 331 330 327 324 322 322 322 321 321 322 320 319 319 319 319 318 318 318 318 318 318 318 318 317 315 313 313 312 313 313 314 314 315 316 317 317 317 316 315 316 317 317 319 319 320 321 321 320 321 321 321
315 318 323 320 313 315 314 314 315 313 313 312 310 312 315 316 313 312 316 317 314 321 322 319 322 327 328 330 331 331 333 334 334 335 335 335 335 334 334 334 334 335 335 334 333 332 331 331 329 327 324 323 324 323 322 322 321 320 320 319 319 319 319 319 319 319 319 319 319 319 317 316 315 313 313 313 314 314 314 314 314 315 316 316 316 316 316 316 317 317 318 320 320 320 321 320 321
315 317 323 318 315 317 313 313 314 313 313 310 312 315 314 312 311 314 314 315 319 328 335 333 329 331 330 330 330 331 332 333 334 334 334 335 334 334 334 334 334 334 334 334 333 332 332 331 330 329 327 325 324 324 324 323 322 322 321 320 320 320 320 320 319 319 319 319 319 319 319 318 317 316 316 317 317 317 316 316 315 315 313 314 315 316 316 317 317 317 318 319 320 320 319 319 319
316 321 324 320 319 317 313 314 314 313 313 311 314 315 313 309 310 317 313 316 324 334 341 335 334 337 331 329 330 330 331 331 333 333 333 333 333 334 334 334 334 334 333 333 333 332 331 332 331 329 329 327 326 325 325 325 325 324 323 323 322 321 321 320 320 320 320 320 320 320 320 320 320 319 319 319 320 320 320 319 318 318 316 314 314 316 317 317 317 317 317 319 319 319 319 318 317
315 318 320 319 318 315 313 315 314 313 313 312 313 314 313 309 312 317 313 315 320 332 344 334 334 337 329 329 329 328 330 330 331 331 332 332 333 333 334 334 334 334 333 333 333 331 331 332 332 330 329 328 327 327 326 326 326 326 325 325 324 324 323 322 321 321 321 321 321 320 320 321 321 322 321 322 322 322 323 322 321 319 319 318 316 317 318 319 318 318 319 319 320 320 320 320 318
314 313 313 317 316 314 315 316 314 313 312 314 312 312 314 312 314 315 313 316 319 332 347 339 334 333 328 329 328 327 328 328 330 330 331 331 332 333 333 333 333 333 333 332 332 331 330 331 332 331 330 329 328 328 327 327 327 327 327 326 326 326 325 325 323 323 323 322 322 322 321 321 321 322 323 323 324 324 324 325 324 321 320 320 320 320 320 321 320 320 320 320 320 320 320 320 320
313 312 313 317 316 316 316 313 313 312 312 315 312 314 320 317 315 312 314 321 324 331 343 342 338 332 327 328 327 328 327 327 329 329 330 331 331 332 332 332 332 332 333 332 332 330 330 331 332 333 331 330 328 327 327 327 327 326 327 327 327 327 328 327 326 325 324 324 324 324 323 323 323 323 323 324 324 325 325 325 325 323 321 322 322 322 321 322 322 322 322 322 322 321 320 320 321
314 312 313 316 317 321 320 313 313 313 312 314 312 315 320 319 316 312 314 321 323 324 332 338 339 331 327 328 327 328 326 326 328 328 330 330 330 331 331 332 332 332 332 332 331 331 330 330 332 333 332 331 329 328 327 326 326 326 327 327 326 327 329 329 329 328 327 326 326 326 326 325 325 324 324 324 324 325 325 326 325 324 323 323 323 323 323 323 323 323 323 322 322 322 321 321 322
315 316 317 316 317 322 323 316 314 314 312 311 312 315 316 315 316 312 311 317 320 318 322 330 335 332 327 327 326 327 327 325 326 327 329 329 330 330 330 331 331 331 331 331 331 331 331 330 332 333 333 332 330 329 328 326 327 327 327 327 327 327 328 330 331 331 330 329 328 328 328 327 327 326 325 324 324 325 325 325 325 324 325 325 325 324 324 324 324 323 323 323 323 322 322 322 323
316 319 321 320 318 317 318 316 313 314 313 311 312 316 317 317 316 311 310 318 321 318 318 321 326 328 327 326 326 326 327 326 326 326 327 328 329 330 330 331 331 332 331 331 331 330 330 330 331 332 333 333 332 331 330 328 328 328 328 328 329 329 329 330 331 332 332 332 331 330 330 329 329 329 327 325 324 325 325 325 325 325 325 325 325 325 325 325 324 324 324 323 323 323 322 323 322
315 318 319 319 318 315 316 317 314 312 313 313 312 313 316 320 319 313 311 318 322 321 319 318 318 322 325 325 325 326 326 327 326 325 327 328 328 329 330 330 331 331 331 332 332 331 331 331 331 332 333 334 333 332 331 331 330 330 330 331 332 332 332 332 331 332 332 333 333 332 331 331 330 330 329 327 325 325 325 325 325 326 326 326 326 325 325 325 324 324 323 323 323 323 323 323 322
315 317 318 318 315 313 316 318 313 311 311 313 313 312 313 315 317 315 314 316 321 321 318 316 316 317 320 322 324 324 325 326 325 324 326 327 327 328 328 330 330 330 331 331 332 332 332 332 332 332 333 334 333 333 332 332 331 331 331 332 333 333 333 333 333 333 332 333 333 333 332 331 331 331 330 329 327 326 326 326 327 326 326 326 326 326 325 325 324 324 323 322 323 323 323 322 322
315 315 317 318 317 315 315 315 313 310 311 313 312 313 313 313 314 314 314 315 318 318 316 316 315 313 314 316 319 321 322 324 323 323 324 325 326 327 328 329 329 329 330 330 331 331 331 332 332 332 333 333 333 333 332 332 331 331 331 331 331 332 332 333 333 334 333 333 333 333 333 332 332 331 331 331 329 327 327 327 328 327 326 325 325 324 325 325 325 324 323 323 322 322 323 323 322
315 315 315 316 317 317 315 314 313 310 312 315 313 312 312 312 313 313 313 313 315 315 315 315 315 313 311 311 313 316 319 320 319 320 322 323 324 326 327 328 328 329 329 330 330 330 331 331 331 332 332 333 333 333 332 332 331 331 331 331 331 330 331 331 331 333 333 334 334 334 334 333 333 332 332 332 330 329 329 328 328 328 327 326 326 324 324 324 323 324 324 323 322 321 322 323 322
316 316 316 316 316 317 315 312 313 312 311 315 315 312 312 312 311 312 312 312 313 313 313 313 313 312 310 309 310 311 313 313 313 315 316 320 323 324 325 327 327 328 328 329 329 330 330 331 331 331 331 332 332 333 333 332 332 332 331 331 330 331 330 330 330 331 331 332 333 334 334 335 334 333 333 332 332 331 330 330 329 328 328 327 327 326 325 324 322 323 324 323 322 322 323 322 322
317 318 317 317 316 315 315 313 313 312 310 316 317 312 311 311 310 310 310 310 311 311 311 311 312 311 310 310 310 309 309 309 310 311 310 313 318 321 324 325 326 327 328 328 328 329 329 330 330 330 331 331 331 332 332 332 332 332 331 331 330 330 330 330 330 329 330 330 330 331 333 334 334 334 333 333 332 331 331 330 329 329 328 328 327 326 326 325 323 322 322 323 323 322 322 322 322
316 317 318 318 315 315 318 317 314 311 310 314 315 312 312 311 310 310 309 309 310 310 310 310 311 312 312 312 311 310 309 309 309 309 307 307 312 317 321 323 324 325 326 327 328 328 328 329 329 330 330 330 330 331 331 332 332 331 332 331 331 330 330 330 329 329 329 329 329 330 330 331 332 333 334 333 332 331 331 330 329 329 329 328 327 326 326 326 324 323 322 323 322 321 321 321 322
314 316 317 317 314 313 317 316 313 312 312 310 311 313 312 312 312 311 311 310 309 310 310 310 310 311 311 311 311 311 310 310 309 310 308 305 306 312 315 319 322 323 325 326 326 327 327 328 328 328 329 329 329 330 330 331 331 331 331 331 331 330 330 330 330 330 330 330 330 330 330 329 329 331 332 333 333 331 330 329 328 329 329 328 327 326 325 325 325 324 323 322 322 322 322 322 322
314 315 317 318 317 314 314 315 313 314 316 313 312 314 317 318 315 312 312 312 311 311 311 310 309 309 309 309 310 310 310 310 309 310 309 306 304 307 310 314 318 321 322 323 325 326 326 327 327 327 328 328 328 328 329 330 330 330 330 330 331 330 330 330 330 330 330 330 330 330 329 329 328 329 331 332 333 332 330 329 328 327 327 328 328 326 324 323 324 325 324 323 322 322 322 322 322
315 315 315 318 318 315 314 314 313 316 319 315 311 313 319 320 316 314 314 312 311 311 311 310 309 307 308 309 309 309 309 309 309 309 308 306 304 304 306 309 313 316 318 320 322 323 324 326 326 327 327 327 327 327 328 329 329 330 330 329 330 330 330 330 330 330 330 330 330 330 329 329 329 329 330 331 332 332 331 331 330 329 328 328 329 327 325 324 323 323 323 323 323 323 322 321 322
317 315 314 315 314 313 314 313 313 318 319 314 312 312 313 314 314 316 315 313 312 311 311 311 310 309 308 308 308 308 308 309 309 309 309 307 304 303 305 307 310 312 314 317 319 321 323 324 325 326 326 326 327 327 327 328 328 329 329 329 329 329 329 329 330 329 330 330 330 330 330 329 329 329 329 330 330 331 331 331 330 330 330 329 329 327 326 326 325 323 323 324 324 324 322 322 322
317 312 313 315 315 315 314 312 313 317 315 312 314 313 312 315 315 315 314 313 313 313 313 314 314 313 311 308 308 308 308 308 308 309 309 307 304 304 305 306 307 309 311 314 316 317 320 322 324 325 326 326 326 326 327 327 328 328 328 329 329 329 329 329 329 329 329 330 330 330 330 329 329 329 329 329 329 329 329 330 330 330 330 330 329 326 324 326 327 325 325 325 324 324 323 323 322
312 310 315 318 321 321 316 314 313 315 315 314 317 316 313 317 317 314 313 312 312 313 313 314 315 316 314 310 309 309 308 308 309 309 307 305 304 305 305 305 305 307 308 310 312 315 318 321 323 324 325 326 326 326 327 327 327 328 328 328 328 328 329 329 329 330 330 330 330 330 330 329 329 329 329 329 328 327 327 327 328 329 330 329 329 328 326 327 327 326 326 325 325 324 324 323 322
312 314 318 317 323 323 320 322 317 313 316 315 318 319 314 316 317 314 313 313 312 312 312 312 313 316 315 313 311 309 308 308 309 308 305 301 302 303 304 304 305 305 306 308 310 313 316 319 321 323 324 325 326 326 326 327 327 327 327 328 328 328 329 329 329 329 330 330 330 330 330 330 329 329 329 328 328 328 327 326 326 326 327 329 329 328 328 327 327 327 325 325 325 324 324 323 323
314 320 319 315 321 318 316 323 318 314 318 315 314 316 314 316 317 314 313 314 312 312 312 313 312 314 315 315 313 309 309 309 310 312 309 303 302 302 302 303 304 304 304 306 308 311 314 318 320 322 323 324 325 326 326 326 327 327 327 327 328 328 328 328 329 329 329 329 329 330 330 330 330 330 330 328 328 327 327 326 326 326 325 325 327 328 328 327 327 327 325 324 325 324 324 324 323
315 320 318 315 318 315 314 318 316 316 316 311 310 312 311 314 317 316 315 314 313 312 312 313 313 314 315 316 316 314 314 316 320 323 320 315 309 302 300 301 302 303 304 304 306 309 313 317 319 321 323 324 324 325 326 326 326 327 327 327 327 328 328 328 328 329 329 329 329 329 329 330 330 330 330 329 328 326 326 326 326 327 325 324 325 327 327 327 328 327 325 324 324 323 324 323 322
314 315 316 316 316 316 316 316 316 319 316 308 308 311 312 313 315 317 315 313 314 313 311 311 311 312 312 311 313 317 318 319 321 320 321 325 315 302 299 301 301 302 303 304 305 308 312 316 319 320 321 323 324 325 325 326 326 326 327 327 327 328 328 328 328 329 329 329 329 329 329 330 330 330 329 329 328 327 326 325 325 325 325 324 324 325 326 326 326 326 326 325 324 323 323 323 321
314 316 317 316 316 320 321 319 317 319 316 309 308 312 317 318 315 314 313 312 313 313 312 312 312 312 310 308 308 313 315 314 314 315 322 326 311 301 301 302 301 303 303 303 304 306 310 314 318 320 321 322 323 325 325 326 326 326 327 327 327 327 328 328 329 329 329 329 329 329 329 330 330 330 330 329 329 328 327 326 324 324 324 324 323 325 326 326 325 326 326 325 324 322 322 321 319
313 316 317 315 317 322 321 317 315 316 316 312 310 314 319 318 315 311 310 313 315 314 313 314 315 313 309 310 311 311 310 309 310 315 326 325 305 300 304 304 304 305 304 304 304 305 308 311 315 318 320 322 322 323 325 325 326 326 327 327 327 328 328 328 328 328 329 329 329 330 330 330 330 330 330 330 329 329 328 326 325 323 323 323 323 324 326 326 326 325 324 324 323 322 320 318 316
312 313 315 314 317 321 318 312 309 311 316 315 312 314 315 314 315 313 311 314 315 314 313 312 313 312 310 315 316 312 309 308 308 312 323 325 309 302 305 306 307 308 306 307 306 305 307 308 312 316 318 320 321 323 324 324 326 326 326 327 327 327 328 328 328 328 329 329 329 329 330 330 330 330 330 330 329 329 328 326 325 324 324 323 323 323 324 325 326 324 323 323 322 319 318 317 316
312 313 313 312 315 319 319 316 312 312 316 317 314 313 313 314 318 318 314 313 313 313 313 311 311 312 312 315 315 312 310 308 309 313 319 317 306 303 307 308 308 309 308 309 308 307 307 307 309 312 315 318 320 321 323 324 325 326 326 327 327 327 327 328 328 328 329 329 329 329 329 329 330 330 330 329 329 328 327 326 325 324 324 324 323 324 324 324 324 324 322 321 320 318 317 316 315
312 314 314 314 316 317 316 317 316 314 314 318 317 313 311 312 315 317 314 313 315 313 313 313 311 312 314 316 315 312 310 311 312 315 320 317 306 304 309 309 309 310 310 310 310 309 309 309 309 310 312 315 317 320 322 323 324 325 325 326 326 327 327 327 328 328 328 329 329 329 329 329 330 329 329 329 328 327 326 326 325 324 324 324 324 324 324 322 322 322 320 319 318 317 317 315 313
311 313 312 313 315 315 315 314 316 317 315 317 321 317 314 313 314 314 312 314 316 315 314 315 313 313 315 317 317 315 314 318 318 317 322 323 309 303 307 309 310 312 312 311 311 310 310 310 310 311 311 313 316 319 320 322 323 324 325 326 326 326 327 327 327 328 328 328 328 329 329 329 329 329 328 328 327 326 326 325 324 324 324 323 323 323 322 322 321 320 319 317 316 315 315 315 313
310 311 311 311 311 313 316 313 313 318 318 318 319 317 319 321 317 313 312 312 313 314 314 314 313 313 316 319 319 316 315 319 321 317 321 323 309 301 306 308 310 313 313 313 312 311 310 310 309 310 311 312 314 316 319 321 322 323 324 325 325 326 326 326 326 327 327 328 328 329 329 329 328 328 328 327 326 326 326 324 323 323 323 322 322 321 320 320 319 318 317 316 314 313 313 313 313
311 311 311 311 311 312 315 314 312 316 318 318 317 314 318 323 316 311 313 312 310 313 312 311 314 316 318 321 319 315 312 315 319 319 322 321 309 302 305 306 308 312 313 313 313 312 311 310 309 310 310 311 312 313 316 319 321 323 323 323 324 324 324 325 326 326 327 328 328 328 328 328 328 327 326 326 326 325 324 324 323 322 321 321 320 319 318 318 317 316 315 314 313 312 313 311 309
Wind_Speed
10 10 8 5 8 6 3 5 2 2 3 2 1 1 1 1 0 2 1 1 2 1 2 2 5 5 3 2 4 4 2 3 3 2 1 1 10 20 15 12 18 18 17 16 17 18 17 15 11 12 14 14 15 14 16 16 15 13 12 12 12 13 13 13 14 14 14 15 14 15 15 15 16 16 17 17 17 18 17 18 18 19 19 19 20 19 20 19 19 20 21 20 21 21 22 22 23
10 9 8 4 8 6 0 2 3 2 4 2 2 1 2 1 1 3 5 4 3 2 1 3 4 4 2 2 4 4 2 0 2 1 2 8 16 17 12 15 21 18 17 15 17 18 18 15 11 13 14 14 15 15 16 16 15 13 13 13 12 11 12 12 12 14 15 14 14 15 15 16 16 17 17 17 17 18 18 18 18 19 19 19 19 19 19 19 19 20 20 20 20 21 21 22 21
10 8 7 4 4 5 1 3 2 0 3 1 2 2 1 1 3 5 6 4 3 3 3 3 2 2 2 2 2 2 1 0 3 2 5 14 16 14 15 19 20 17 17 16 18 19 18 15 12 13 15 15 15 16 15 15 15 13 13 12 12 11 10 10 12 15 15 14 14 15 16 16 17 17 17 17 17 18 18 18 18 19 19 19 19 19 19 18 18 19 19 19 20 20 20 20 20
9 9 8 2 2 4 3 4 2 2 2 1 2 2 2 3 4 4 4 2 4 3 2 3 2 1 1 1 1 1 0 1 4 3 8 15 14 16 19 19 18 16 17 19 19 19 18 16 14 14 15 15 15 15 14 15 14 13 14 12 11 11 11 10 11 13 14 14 14 14 15 15 15 16 16 17 18 18 18 18 18 18 18 18 18 18 18 18 17 18 18 18 19 19 19 19 19
7 9 8 2 2 2 3 3 2 3 1 3 1 3 4 5 4 3 2 3 4 1 2 3 1 0 1 1 1 1 1 3 5 5 10 14 15 20 20 19 18 17 19 19 18 18 18 17 15 14 15 15 14 15 14 14 13 13 14 13 12 11 11 10 10 11 11 14 15 13 15 16 15 15 16 17 17 17 18 18 17 17 18 18 18 18 17 17 17 17 17 18 18 18 18 18 18
6 7 9 8 4 1 3 1 2 0 2 4 1 4 4 5 4 4 4 3 3 1 2 2 1 2 1 0 0 2 2 4 5 8 12 15 18 21 20 19 19 18 20 19 17 18 18 16 14 14 15 15 14 14 14 14 13 12 12 12 12 12 11 10 10 10 9 12 14 13 14 15 15 15 16 17 17 17 16 16 16 17 17 17 17 17 17 17 16 17 17 17 18 18 18 19 19
9 4 5 7 3 2 3 2 2 2 3 4 3 3 3 4 4 6 6 2 2 1 1 1 1 4 1 1 1 2 2 4 6 10 14 17 21 22 21 20 19 19 19 19 18 19 19 16 14 13 14 15 14 13 14 13 12 12 11 10 11 13 12 9 10 10 9 11 12 13 13 12 12 13 15 16 16 16 15 15 16 16 16 16 16 16 16 16 16 16 17 18 18 19 19 18 18
9 3 0 4 2 3 3 1 2 2 2 2 2 3 3 4 5 7 7 3 2 1 1 1 1 3 1 1 2 1 2 6 6 12 18 19 23 22 21 21 19 19 19 19 19 18 18 17 15 14 14 15 14 14 14 14 12 11 11 9 10 13 13 9 8 10 9 9 11 12 12 10 10 12 14 14 14 15 15 15 14 15 15 15 16 15 15 15 15 16 16 18 18 18 18 17 17
7 4 0 3 2 2 2 1 2 2 3 3 3 4 3 4 5 7 7 2 1 2 1 3 2 1 1 2 0 2 1 5 8 16 19 20 24 23 22 21 20 20 19 19 19 19 19 18 16 14 14 14 14 14 13 14 13 11 10 8 9 11 11 10 9 10 9 8 10 11 10 11 12 13 13 13 13 14 14 14 14 14 14 14 15 15 14 14 15 15 16 16 17 17 16 16 16
5 4 1 3 2 1 3 2 2 2 4 3 4 5 4 4 5 5 6 2 1 3 1 2 1 1 3 1 1 1 0 4 12 19 18 21 24 23 23 21 20 20 20 20 19 19 19 18 16 15 15 14 14 13 13 13 12 10 10 9 8 8 9 11 11 10 10 8 9 10 10 12 13 13 12 12 13 13 13 13 13 13 13 13 13 14 13 13 14 14 14 15 15 15 15 15 15
3 4 2 3 3 2 1 3 2 3 4 3 4 5 4 5 6 4 3 2 0 3 3 2 2 3 3 0 2 1 2 8 16 20 19 22 22 22 23 20 20 20 20 20 19 18 19 18 16 15 15 14 14 12 13 13 12 11 10 9 8 7 8 11 11 9 10 9 9 9 10 11 12 12 12 12 13 12 12 13 12 12 12 12 12 13 12 12 13 13 13 13 13 13 13 13 14
2 3 3 3 2 2 2 2 3 4 5 3 2 3 4 6 6 5 4 3 2 2 3 4 2 4 3 2 2 1 4 12 15 18 20 21 21 22 22 20 20 20 19 20 18 18 18 17 16 14 14 15 15 13 13 13 12 11 11 10 8 6 7 10 11 9 9 10 10 9 9 11 12 12 12 12 13 12 12 13 12 11 11 11 10 11 11 11 12 12 12 12 11 11 12 12 12
2 1 3 3 2 2 2 1 3 4 5 2 2 1 4 6 5 6 6 3 3 4 4 5 3 3 2 2 2 1 5 13 14 17 20 20 20 20 20 19 20 20 19 19 18 17 18 17 16 15 14 14 16 15 13 13 12 11 11 9 8 6 5 9 12 10 10 10 10 9 9 10 10 11 11 12 12 12 12 13 12 11 11 10 9 10 10 10 10 10 10 10 10 10 10 11 11
2 2 3 2 1 2 3 1 2 1 3 3 1 2 4 3 4 5 7 4 5 5 2 3 5 2 2 2 2 2 7 16 16 17 19 19 19 19 18 19 20 20 19 18 18 17 17 17 16 16 15 14 15 16 14 14 12 11 11 9 8 6 4 7 11 10 10 11 10 9 9 8 9 9 9 10 10 10 11 12 11 11 11 10 9 8 9 10 9 8 8 8 8 8 9 9 10
2 2 3 3 1 1 2 1 0 2 3 3 1 2 3 1 3 4 5 6 5 3 1 2 3 2 3 4 3 3 12 19 19 20 21 20 19 18 18 18 18 18 19 19 18 17 16 16 16 16 15 14 15 16 16 15 13 12 11 10 8 5 4 7 10 9 10 12 11 9 8 7 8 8 8 8 9 9 9 11 11 10 10 10 9 9 9 9 7 7 7 6 6 7 7 7 8
2 3 3 2 1 1 3 2 2 2 3 3 1 0 2 2 2 3 4 3 2 0 1 3 2 1 3 6 2 4 17 23 20 22 23 21 19 17 17 17 17 17 18 19 17 16 17 17 16 16 16 15 15 17 17 16 14 13 12 10 8 5 6 8 9 9 10 12 11 9 8 7 7 7 8 8 8 8 8 9 10 10 9 9 9 9 10 8 7 6 5 5 5 5 5 6 7
2 3 4 1 2 2 3 3 3 2 4 3 2 2 5 2 1 1 2 2 3 1 1 2 2 0 3 3 2 5 22 24 22 23 23 22 20 18 17 17 17 17 17 18 17 16 17 17 16 16 17 15 15 16 17 16 15 15 13 10 8 6 8 8 8 9 9 12 11 9 8 7 7 7 7 7 7 7 7 8 9 9 8 9 9 10 11 9 7 5 4 4 3 4 4 4 5
3 3 3 1 3 2 4 5 4 3 2 3 2 3 5 3 2 1 0 3 3 1 2 2 2 3 3 3 1 12 25 24 24 25 24 24 21 19 18 17 18 18 18 18 18 17 18 19 18 17 17 17 16 16 17 16 15 14 13 11 9 8 9 8 8 8 8 10 11 9 8 7 7 7 6 6 6 8 8 8 7 7 7 7 8 10 11 9 8 6 4 3 2 2 2 3 4
2 3 2 3 4 3 3 4 4 2 3 3 3 3 5 5 4 3 2 1 2 2 3 2 3 4 1 1 6 17 25 26 25 26 25 24 21 19 19 19 19 20 20 20 19 17 17 20 19 18 18 18 17 17 17 16 15 14 14 13 11 10 9 9 8 8 8 8 9 9 8 8 7 7 7 6 6 8 9 8 7 7 7 7 8 10 10 9 8 6 5 3 2 1 0 1 2
1 3 2 4 5 4 3 4 5 3 2 3 5 0 2 4 3 3 3 2 2 6 6 3 6 7 3 4 12 20 24 26 27 26 25 24 22 20 20 21 22 22 21 21 21 19 18 20 21 19 19 18 17 18 17 16 16 15 15 13 12 11 10 9 8 8 7 7 8 8 8 8 8 8 7 6 6 6 7 8 7 6 7 8 9 10 10 9 8 7 6 5 3 2 2 2 2
1 3 3 4 3 2 3 3 4 3 1 1 3 1 2 3 2 3 6 4 4 8 8 8 10 9 7 8 15 20 23 26 26 26 25 25 23 20 20 21 22 22 21 21 21 20 19 21 22 21 20 19 17 18 18 18 17 16 15 15 13 12 11 10 9 8 7 7 7 8 8 8 9 9 8 7 6 6 6 6 6 6 6 7 8 9 9 8 8 7 7 6 5 4 4 4 3
1 1 4 4 2 2 3 1 2 1 2 1 0 1 3 2 2 4 8 7 6 6 6 9 9 8 10 12 17 19 21 23 25 25 25 27 25 22 20 20 21 21 22 21 21 21 20 22 24 22 21 21 19 18 19 19 18 17 17 16 15 14 12 11 10 9 9 8 7 8 9 9 9 10 9 8 7 6 6 5 6 6 6 6 7 7 7 7 7 7 6 6 6 5 5 4 4
1 2 2 3 4 3 2 1 1 0 1 2 3 2 1 2 3 3 8 9 5 3 5 7 7 9 13 14 17 17 17 21 25 27 27 29 28 24 21 21 22 21 23 23 20 21 21 23 24 24 23 22 21 20 19 19 19 18 17 17 16 15 14 13 12 11 10 9 8 8 9 9 9 10 10 9 8 7 7 6 6 5 5 6 6 6 6 6 6 6 6 5 5 5 4 4 3
4 2 3 2 4 4 3 1 2 1 4 5 2 0 2 5 4 1 7 10 4 1 3 3 6 13 16 15 17 18 20 22 26 27 27 28 28 25 22 21 22 22 23 24 21 20 22 23 24 25 25 23 22 21 20 19 20 19 19 18 17 16 15 15 14 12 11 11 10 9 9 9 9 10 10 10 9 8 8 8 7 7 6 6 6 6 6 6 6 6 5 5 4 4 4 4 4
3 4 3 2 2 4 4 4 4 3 5 3 0 2 4 7 3 0 8 9 5 2 2 4 7 11 12 14 16 16 18 21 23 23 23 24 25 24 23 22 23 23 24 26 25 21 21 23 24 25 25 25 24 22 22 21 21 21 20 20 19 18 17 16 15 14 13 12 11 11 10 10 10 10 10 10 9 8 8 8 8 8 7 7 7 7 6 6 6 6 5 5 4 4 4 5 5
5 6 4 2 2 4 3 3 2 3 4 1 2 4 5 4 2 4 9 6 4 2 5 5 7 8 9 11 15 16 16 19 21 22 23 23 23 24 25 25 25 25 25 26 27 24 21 21 23 24 25 26 25 24 24 23 22 23 22 21 20 19 18 17 16 16 15 14 13 12 11 11 11 10 9 9 9 8 7 7 6 6 7 8 8 7 7 6 6 6 6 5 4 4 4 5 6
4 6 3 3 3 3 1 1 2 2 3 4 4 4 4 2 1 5 6 2 3 5 4 4 7 8 9 8 11 15 16 19 22 22 21 20 21 25 26 27 27 26 26 26 27 27 24 22 22 24 25 26 26 25 25 25 24 24 23 21 21 20 19 18 18 17 17 16 15 14 13 12 12 11 11 10 9 8 7 6 6 5 5 6 7 7 7 6 6 6 6 6 5 5 5 6 7
2 5 1 4 4 4 3 4 4 1 2 6 6 3 3 3 2 5 3 0 3 7 4 3 6 6 8 8 8 10 14 18 21 20 19 22 26 28 27 28 29 28 28 28 28 28 28 26 23 23 25 26 27 26 26 26 25 25 24 23 22 21 20 19 19 19 18 17 16 16 15 14 13 12 12 11 10 9 8 7 6 6 4 4 5 6 6 5 5 6 6 6 6 5 6 7 7
3 4 0 5 4 3 6 5 3 2 2 5 5 2 3 2 6 6 2 1 4 6 4 4 6 5 6 7 6 7 11 14 17 19 22 26 29 29 28 30 31 30 29 29 28 28 30 30 26 24 24 25 27 28 27 27 27 26 25 24 23 22 21 21 21 20 19 18 18 17 16 16 15 14 13 13 12 11 10 8 7 6 5 5 5 6 6 5 5 5 5 5 5 6 6 7 7
1 2 1 2 5 4 6 3 4 3 3 5 4 3 3 7 11 6 1 3 6 5 5 5 5 5 5 5 5 7 10 14 18 23 26 27 29 29 29 31 31 31 29 28 29 30 31 32 30 27 25 25 27 29 28 27 27 27 27 26 25 23 23 22 22 21 20 19 19 18 18 17 17 16 15 14 13 12 12 10 9 7 6 6 6 6 6 6 6 6 5 6 6 6 7 7 7
1 2 1 1 1 4 5 2 5 5 3 4 4 3 4 8 11 5 2 2 5 6 7 6 6 5 5 5 6 7 9 16 21 23 25 28 29 28 30 31 30 31 29 28 30 31 30 32 32 31 29 28 28 30 30 29 28 27 27 27 26 25 24 23 23 22 21 21 20 19 19 18 18 17 16 16 14 13 13 12 10 8 7 7 7 6 7 7 7 6 6 6 7 7 7 7 7
1 2 1 1 3 5 6 2 6 6 2 3 5 3 5 8 9 3 1 2 4 7 7 6 7 6 6 5 6 7 8 14 19 20 23 26 28 28 29 31 31 32 32 31 31 31 30 31 33 32 31 31 30 31 31 30 29 27 27 27 27 26 25 25 24 23 22 22 21 21 20 19 18 18 17 17 16 15 14 13 10 9 8 8 8 8 8 8 7 7 7 7 7 7 7 7 9
1 2 2 2 4 4 4 2 4 3 1 2 4 3 3 5 8 4 2 4 5 6 7 6 7 6 6 5 6 7 6 9 13 19 24 27 29 30 31 31 32 34 34 34 32 31 32 32 33 32 32 32 32 32 31 31 30 28 27 27 28 27 26 26 25 23 23 23 23 22 21 20 19 19 18 18 18 16 15 13 11 10 10 9 9 10 9 9 8 8 7 7 8 8 8 9 10
1 1 3 3 3 2 2 4 3 0 1 3 4 4 5 6 8 6 3 6 6 6 9 7 6 6 5 6 6 7 7 7 10 19 27 30 31 31 31 32 32 33 34 35 34 33 33 33 33 33 33 33 33 32 32 31 30 28 27 27 29 28 27 26 25 25 25 24 24 23 22 21 21 20 19 19 18 17 16 13 12 12 12 11 11 11 11 11 10 10 10 9 11 11 9 8 11
5 5 5 2 1 3 4 4 2 2 2 3 4 4 7 10 11 9 5 6 7 8 8 6 6 7 6 6 7 8 8 9 13 22 28 29 30 30 30 31 31 32 32 33 34 33 33 33 33 33 34 35 35 33 32 31 28 27 28 27 28 30 29 28 27 27 26 25 24 23 22 22 22 21 20 20 19 18 17 15 13 12 13 12 13 13 12 13 13 13 13 11 13 14 10 9 12
9 7 5 4 3 4 5 5 4 2 2 4 7 6 7 10 12 13 7 6 7 7 5 5 6 6 6 6 7 8 8 11 17 22 23 23 26 28 30 31 31 31 31 31 33 33 33 33 32 33 35 36 35 34 32 31 27 28 31 30 30 31 31 30 29 29 28 27 26 24 23 23 23 22 21 20 20 20 19 16 15 15 15 15 15 13 12 14 15 15 14 12 14 16 14 13 13
5 4 4 4 4 5 4 3 5 1 3 5 7 7 9 9 11 14 8 3 5 7 6 7 7 6 7 8 8 9 10 12 12 16 20 21 23 26 28 29 30 29 30 31 32 34 35 34 34 35 36 36 36 35 33 33 32 32 33 32 33 33 31 31 30 30 30 29 27 26 25 25 24 23 22 21 20 20 19 18 17 17 17 17 17 15 14 14 15 16 16 13 14 17 16 14 11
4 4 4 3 3 5 5 4 4 1 2 5 3 5 10 10 11 14 8 4 6 8 8 9 9 9 7 7 9 10 10 9 7 12 17 19 22 25 27 29 30 30 32 34 36 37 37 36 37 37 36 37 38 38 36 36 36 36 34 34 34 32 31 31 31 31 30 29 29 27 27 27 26 25 24 22 21 21 20 20 19 18 18 18 19 18 16 13 12 15 17 16 16 17 17 14 11
4 4 4 3 3 3 6 4 3 1 2 4 3 3 9 10 11 13 11 8 8 9 10 10 10 9 7 8 10 10 9 9 8 12 15 19 23 24 26 28 31 33 34 36 37 36 36 37 38 38 38 38 38 39 39 38 38 37 35 34 32 30 30 31 31 31 31 31 30 29 29 28 27 26 25 24 23 22 22 21 20 20 19 19 20 20 18 15 13 12 15 19 18 17 16 15 12
4 4 4 4 2 1 5 4 3 1 1 2 3 4 8 8 8 11 12 10 9 10 10 9 8 8 10 9 8 8 10 11 10 12 12 16 21 23 26 30 31 34 35 36 36 35 36 39 40 40 39 39 38 39 40 40 38 37 35 34 32 30 29 29 29 30 31 32 32 31 30 29 29 28 27 26 24 23 23 22 22 22 22 21 20 20 20 18 16 13 13 17 19 17 16 14 13
4 4 6 4 3 5 6 3 3 3 2 1 2 7 8 8 9 11 10 6 7 9 8 9 8 9 10 8 7 9 10 11 11 12 11 11 18 24 29 31 31 32 35 36 37 38 40 42 42 41 41 40 40 40 41 40 37 35 33 32 29 27 27 27 27 29 31 31 31 31 30 29 28 28 28 28 27 25 24 22 22 22 23 23 19 17 19 20 19 16 13 14 17 18 17 15 13
3 4 7 7 7 6 3 3 4 3 4 2 1 6 8 6 10 11 8 6 7 6 6 9 9 8 9 8 10 11 11 11 11 12 10 9 17 23 26 29 30 33 37 38 39 40 41 42 42 41 41 41 41 41 40 39 38 36 34 32 30 28 28 29 30 31 30 30 30 29 28 28 27 26 26 28 29 28 26 23 21 19 20 22 23 17 15 17 20 19 16 15 17 17 17 16 14
3 6 8 7 7 6 2 2 2 1 4 3 3 5 7 5 6 8 7 9 10 7 7 8 8 7 8 9 11 11 10 11 11 12 10 10 15 19 22 29 33 36 39 38 37 39 40 40 39 40 41 42 41 40 40 39 39 38 36 35 35 33 32 32 32 31 30 29 29 28 28 27 26 25 24 26 28 28 28 27 25 24 20 20 26 21 12 14 18 19 18 17 18 16 15 17 17
4 6 10 9 6 4 3 2 1 3 3 3 2 2 6 7 6 7 6 8 10 8 9 10 9 9 10 10 11 11 12 12 10 11 11 11 15 19 24 31 35 37 37 35 36 38 39 39 40 40 41 41 40 39 39 40 40 39 38 36 35 35 35 33 31 30 30 29 28 28 28 27 25 24 23 24 26 26 27 28 28 28 24 23 26 20 15 18 18 18 19 18 18 17 16 17 18
4 5 10 8 6 5 3 2 2 1 3 5 2 2 5 7 5 4 4 8 11 11 11 11 10 10 11 11 12 13 13 11 9 10 10 11 17 23 28 30 31 35 35 34 37 38 37 38 38 38 39 40 39 38 39 40 40 40 38 37 36 36 35 33 31 30 29 28 28 28 27 26 25 24 24 23 23 24 25 26 26 26 26 27 25 20 21 23 20 20 21 20 20 18 16 17 18
2 6 7 5 4 4 3 2 2 1 3 7 4 3 4 8 5 4 2 7 13 13 10 10 10 10 10 10 11 12 11 9 8 9 11 14 19 23 25 25 26 30 32 33 35 35 35 35 35 36 38 39 38 38 38 39 39 39 38 38 37 35 33 32 31 30 29 28 27 27 27 27 26 25 24 23 23 23 23 24 24 24 25 26 24 24 28 26 21 20 20 21 22 18 16 18 18
7 6 7 7 4 4 3 1 2 1 7 6 6 7 4 7 4 7 5 7 10 10 7 8 9 10 10 9 10 11 9 7 6 7 10 14 18 19 19 23 26 27 27 28 31 33 34 34 34 36 38 38 38 37 37 38 39 39 39 39 38 37 34 32 32 31 30 29 28 28 28 27 27 26 25 24 23 23 22 22 23 23 24 24 24 25 26 22 19 19 18 19 21 18 16 17 15
8 5 6 5 3 3 3 3 2 4 8 2 3 5 6 7 5 5 6 5 5 8 9 10 12 11 12 10 9 8 7 6 5 6 7 9 12 14 17 21 25 25 25 27 31 33 34 34 34 35 36 37 37 37 37 38 39 39 40 40 39 38 36 34 34 34 32 31 30 29 28 27 27 26 25 24 23 23 23 22 22 22 23 24 25 24 23 21 18 17 17 18 20 18 16 14 13
6 5 6 5 1 1 1 1 1 5 6 1 2 1 4 10 6 4 7 7 6 9 9 11 12 11 12 10 7 5 4 5 5 5 6 6 6 9 14 19 22 23 26 28 30 31 32 33 34 35 36 37 37 37 38 38 39 40 41 40 40 39 37 37 36 35 34 33 32 30 29 28 27 27 26 25 25 24 23 23 22 23 23 23 24 23 23 22 19 18 17 16 18 19 17 14 12
7 7 6 6 4 3 5 4 1 4 5 2 1 1 4 9 4 6 11 10 8 8 8 9 8 9 10 7 5 5 5 6 6 6 6 6 6 8 13 17 20 22 25 26 27 29 31 32 33 34 35 35 35 36 37 38 39 40 40 40 40 39 38 38 37 35 34 33 33 31 30 30 29 28 28 27 26 24 23 22 21 22 22 22 22 22 21 20 18 19 19 15 14 15 16 14 13
8 8 6 5 6 5 6 6 3 4 2 2 2 2 4 4 3 6 9 8 7 6 7 6 6 9 8 6 5 6 8 8 7 6 7 7 8 10 12 15 18 20 22 23 25 27 28 30 32 33 33 33 33 35 35 37 39 39 39 39 39 38 37 36 36 35 34 33 33 32 32 31 30 30 28 27 25 23 22 21 20 20 21 21 22 22 22 20 17 18 18 16 13 14 16 15 15
5 4 5 4 5 5 3 4 4 3 1 1 3 4 4 4 6 10 7 7 8 7 7 6 8 9 5 5 7 7 9 8 7 7 7 7 8 10 11 13 14 16 18 21 24 25 27 29 30 31 32 31 31 33 35 36 37 37 37 37 37 36 35 34 34 34 33 33 33 32 32 31 30 29 27 25 24 22 21 20 19 18 19 20 20 21 22 22 18 17 18 18 16 16 17 17 18
2 3 7 5 3 7 5 1 1 4 2 3 2 6 6 3 8 11 9 10 9 8 8 8 10 8 4 6 8 8 8 8 7 6 6 6 6 7 10 10 10 11 14 17 20 23 25 26 27 28 29 30 30 32 34 34 35 34 34 35 34 34 34 34 33 33 33 32 31 31 30 30 29 27 26 24 23 21 20 19 18 17 17 18 19 19 19 21 20 17 17 19 18 19 20 20 19
6 6 8 4 3 3 4 1 2 3 3 4 2 8 7 2 6 5 2 7 10 10 9 7 7 6 6 9 9 8 8 7 6 5 5 5 5 6 8 9 9 10 10 12 14 17 20 22 24 26 28 29 30 31 32 32 33 33 33 33 33 33 33 33 33 33 32 31 30 29 28 28 27 26 25 23 22 21 20 18 17 17 18 18 19 19 18 19 20 18 17 20 21 22 22 20 18
5 6 7 6 3 4 3 3 2 2 3 4 3 5 5 7 8 3 1 5 7 9 10 8 8 7 7 9 9 9 6 5 6 5 4 5 5 7 8 9 10 10 9 10 10 12 14 17 20 22 24 26 28 28 29 30 30 31 31 31 32 32 32 32 32 31 30 30 29 28 27 27 25 25 24 23 22 21 20 19 17 19 20 20 19 19 19 19 20 21 22 23 24 23 22 20 18
3 4 5 2 2 5 4 3 3 4 4 4 4 4 3 7 7 5 8 9 7 8 9 10 11 9 7 7 8 7 5 5 6 5 6 5 5 7 7 8 8 9 9 9 10 11 12 13 14 17 19 21 23 25 26 27 28 28 29 29 30 30 30 30 30 29 29 28 27 27 26 25 25 25 24 23 22 21 20 19 19 21 23 21 20 20 20 21 21 22 24 24 24 23 21 19 17
4 6 8 5 2 2 2 2 2 4 5 3 2 4 6 6 4 9 12 12 11 11 12 12 10 7 7 7 7 6 6 6 5 5 6 4 3 5 5 6 8 9 9 9 9 11 12 13 13 13 15 17 19 22 23 25 26 26 27 28 28 28 28 28 27 27 26 25 25 24 24 24 24 24 23 22 22 22 21 21 22 23 23 23 23 23 23 23 22 23 22 22 22 21 19 16 15
9 7 8 9 6 4 4 6 3 3 4 4 3 5 9 5 4 8 9 10 12 11 10 11 9 6 7 7 7 6 6 6 5 5 5 3 3 5 6 7 8 9 9 8 9 10 11 13 13 13 13 15 17 19 21 23 24 25 25 25 25 25 25 25 25 24 25 24 23 23 24 23 23 22 22 22 23 23 22 23 24 24 24 24 25 24 23 22 20 21 22 22 22 20 17 16 16
Wind_Direction
5 359 353 354 353 346 2 46 87 329 70 87 300 114 232 221 173 174 154 173 157 203 209 132 140 137 130 160 171 168 136 164 175 123 178 168 143 158 161 156 159 151 147 143 138 142 135 137 146 138 137 129 123 118 110 106 105 103 97 99 94 89 92 92 91 90 92 93 91 91 90 89 88 87 88 90 93 95 93 90 88 85 85 85 86 86 84 83 82 82 82 82 83 84 84 85 85
9 360 351 338 357 15 275 60 89 323 47 52 279 166 274 299 189 189 178 189 196 196 142 123 119 104 80 87 121 129 109 240 200 151 97 130 140 156 161 158 159 152 149 144 139 145 141 139 141 138 139 133 126 119 114 113 113 105 101 102 98 96 98 98 96 94 94 93 91 90 91 92 90 88 89 91 94 96 94 90 87 86 86 88 88 87 85 83 82 83 84 84 85 86 87 86 85
11 3 353 332 3 39 85 39 81 41 54 20 280 241 277 163 212 205 193 203 192 157 112 127 121 88 74 77 104 125 112 324 198 178 118 141 147 161 166 162 160 152 147 141 142 148 144 138 137 139 139 137 129 122 117 116 113 107 106 101 99 100 99 98 98 100 98 96 95 93 92 93 93 92 91 91 94 96 95 90 88 89 90 90 89 88 87 84 82 84 86 86 87 87 87 86 83
14 12 360 341 32 36 64 39 116 114 68 234 305 273 233 195 210 213 222 208 157 127 104 146 142 74 77 131 135 109 124 188 190 168 137 158 161 161 166 162 157 151 145 143 146 149 143 139 142 142 141 141 133 124 120 118 115 114 114 105 100 101 101 94 92 101 104 105 98 96 99 95 93 95 95 95 98 99 97 94 92 92 92 90 90 89 88 86 84 84 86 87 88 88 87 85 83
11 21 18 81 79 35 96 63 116 89 137 186 20 282 231 207 204 201 209 179 166 103 105 136 117 29 64 129 127 136 156 129 188 188 148 164 166 159 163 161 156 150 147 148 148 147 144 144 149 147 143 144 136 129 126 124 121 120 120 112 106 105 105 97 91 94 102 109 100 95 100 98 96 94 94 98 100 101 99 97 95 95 93 92 92 92 90 88 85 84 87 90 91 89 88 86 84
1 25 38 70 87 107 122 86 118 129 226 172 157 272 244 209 199 163 136 170 219 256 150 152 150 147 85 339 298 176 170 121 172 183 155 162 168 162 161 160 156 152 149 149 150 150 150 149 150 148 145 147 141 135 132 129 126 122 122 117 114 111 107 105 102 99 97 101 103 101 100 100 100 95 96 101 101 101 99 98 99 97 94 94 93 92 90 88 86 86 88 92 93 91 89 86 82
3 2 32 63 69 38 99 140 171 230 235 168 173 253 255 220 191 143 142 176 231 239 150 208 154 118 114 299 177 196 207 157 155 169 166 165 166 162 161 161 157 153 150 150 152 155 155 151 151 150 148 149 144 139 137 134 131 123 119 117 120 119 109 109 110 107 102 99 107 109 105 102 95 94 100 104 105 104 101 98 99 98 94 93 93 92 91 89 88 88 89 92 91 90 87 83 79
14 11 329 76 48 26 84 150 233 215 222 215 219 233 234 212 183 150 161 181 189 201 74 206 168 113 180 8 144 248 194 171 159 167 171 165 162 161 163 163 158 153 150 152 156 158 157 155 154 154 151 151 147 144 145 139 133 125 121 118 121 125 115 113 120 111 106 108 110 108 105 101 97 105 107 105 105 105 102 99 98 97 95 94 96 96 93 91 90 90 90 91 90 88 84 81 77
28 32 221 82 81 42 45 314 273 245 256 261 242 238 243 202 178 156 164 212 273 168 160 192 187 168 175 61 216 287 195 188 169 165 170 164 162 163 165 166 161 154 151 154 158 159 158 158 157 159 156 153 153 151 151 142 135 130 130 128 121 130 126 118 121 116 113 115 111 106 100 98 104 109 106 103 104 106 104 100 99 98 96 97 98 96 94 93 92 91 91 91 89 86 83 80 76
33 26 123 81 89 74 344 284 265 268 251 256 249 235 219 181 167 152 156 188 236 142 191 209 143 134 134 125 266 335 83 176 160 164 170 166 163 165 167 168 164 156 154 156 157 159 160 162 162 164 163 157 157 155 153 146 140 140 140 141 127 130 136 125 122 127 133 128 113 108 103 105 109 108 106 105 105 111 110 105 103 100 98 98 98 96 95 94 94 93 92 92 90 85 82 78 74
32 4 94 79 70 120 260 242 269 270 261 297 279 242 198 166 141 133 136 148 144 124 173 191 156 138 99 307 258 334 141 158 161 166 170 167 166 167 167 167 166 160 157 158 157 159 163 167 168 170 169 165 163 156 153 149 148 150 147 150 142 132 139 136 130 137 147 134 121 119 113 117 118 113 113 111 110 114 115 112 107 103 101 100 101 100 98 97 97 96 94 92 88 84 79 75 70
65 346 62 88 119 180 213 226 274 284 300 315 257 252 177 154 138 156 163 154 139 128 199 201 179 136 90 308 257 326 155 167 172 170 169 169 168 168 168 166 168 164 159 160 160 161 165 169 172 175 175 174 172 162 157 155 158 158 152 156 156 146 142 146 142 145 155 142 135 139 128 125 125 121 122 122 118 116 118 119 114 110 107 106 108 105 100 101 100 98 96 93 88 82 76 72 67
98 136 85 104 165 164 165 202 276 312 318 273 210 234 149 152 170 178 152 136 147 152 229 206 163 111 120 245 267 331 181 183 179 172 171 170 169 168 168 168 169 167 163 164 164 164 167 170 173 177 180 181 177 170 166 165 166 163 161 164 166 168 151 155 160 159 163 157 151 151 142 134 132 128 130 132 128 126 126 124 122 120 115 111 115 113 105 105 105 101 100 94 89 82 75 70 63
126 155 108 115 100 110 165 235 300 314 290 272 277 174 164 170 188 172 141 151 196 180 229 184 156 127 144 218 273 299 196 187 180 176 174 170 171 168 168 171 171 168 166 169 168 168 169 172 174 177 181 183 180 176 174 173 172 170 171 176 178 184 170 163 171 168 165 168 165 159 151 142 139 134 134 135 134 136 134 130 128 127 124 118 120 122 112 111 113 105 102 97 91 83 78 71 62
126 127 88 105 64 63 188 253 242 148 250 257 25 160 184 275 143 150 165 170 215 211 123 157 171 183 175 176 216 232 189 181 178 178 175 173 171 168 171 172 172 170 171 173 172 172 171 173 174 177 180 181 183 181 179 176 177 180 179 184 190 196 182 163 168 168 166 172 173 168 163 151 147 144 142 143 141 141 140 137 132 131 129 125 127 130 124 123 124 113 107 101 92 87 80 74 67
116 105 72 96 144 208 197 197 131 117 261 237 333 193 166 275 134 154 230 162 151 260 75 179 188 238 175 163 215 208 175 173 175 178 175 174 171 168 173 173 173 173 175 177 176 177 174 174 175 177 179 179 183 184 182 179 182 188 185 189 197 196 176 161 161 164 168 175 175 172 174 165 155 150 144 144 146 147 149 146 141 137 133 132 133 135 137 139 137 129 120 109 97 90 79 71 66
87 81 82 91 167 203 196 185 176 164 273 275 299 222 159 237 253 204 274 74 105 121 331 231 194 223 184 176 328 162 165 169 173 174 173 173 172 170 174 176 176 178 180 181 181 181 177 177 177 178 181 181 182 184 185 183 188 193 189 192 198 189 173 161 159 162 166 175 178 175 174 171 162 152 143 138 141 147 149 151 150 145 142 145 142 141 148 151 151 148 137 125 109 95 80 66 62
64 82 115 173 175 195 185 184 197 172 309 306 259 214 176 199 212 191 29 38 46 98 287 271 260 261 234 275 334 153 161 167 171 173 173 174 175 174 177 179 179 182 184 184 186 186 181 180 180 180 182 183 184 184 186 188 191 193 189 189 188 183 174 166 164 162 164 172 179 180 175 175 169 159 149 136 132 136 139 145 149 148 151 157 152 150 158 163 164 162 156 150 129 111 86 62 56
79 112 126 206 191 206 200 195 204 187 310 303 286 235 196 207 176 155 191 284 28 174 256 296 284 266 266 300 148 155 161 166 172 176 177 178 180 180 180 182 183 185 185 186 189 188 185 183 182 183 183 185 190 189 189 191 190 186 181 180 180 181 177 171 169 165 167 171 178 183 182 180 175 167 159 145 134 134 137 141 146 150 153 161 164 164 170 175 175 174 176 180 178 172 64 42 39
118 123 141 230 211 233 233 207 222 233 290 309 305 267 196 235 179 156 182 188 180 210 226 202 237 233 184 156 153 159 164 167 175 179 182 184 186 186 185 186 187 188 187 187 187 189 190 188 186 186 186 186 191 194 194 192 190 183 177 178 180 182 181 176 174 173 173 175 179 184 185 185 181 176 170 161 149 141 141 141 144 149 150 158 168 173 179 184 186 189 192 197 211 233 269 306 333
115 143 178 228 201 239 249 200 241 262 177 253 315 51 237 239 189 180 155 154 232 232 221 203 217 205 173 168 163 166 167 169 177 183 187 189 191 193 193 191 190 190 189 188 189 191 192 192 191 188 189 189 190 196 198 196 192 188 183 183 183 185 187 182 180 180 181 183 185 186 186 186 186 183 181 177 168 157 152 149 148 149 150 154 163 174 181 188 193 199 205 212 222 235 255 276 293
72 219 193 209 167 211 267 226 253 257 153 181 54 258 242 167 182 183 162 189 233 229 217 214 215 184 169 169 166 170 172 174 179 186 191 193 196 197 198 197 192 191 191 191 192 193 194 196 196 193 192 194 194 197 200 201 197 194 192 189 189 190 191 191 190 188 188 190 192 192 190 187 187 187 187 187 183 177 173 167 162 160 160 161 165 175 183 191 197 204 212 220 229 240 250 263 276
115 282 241 215 180 201 252 194 250 347 170 215 186 233 185 157 254 188 184 212 207 216 230 222 211 170 162 162 164 173 177 181 185 190 193 194 198 199 199 199 195 194 195 199 196 194 197 198 199 198 197 197 199 199 201 204 202 201 200 197 197 196 196 198 198 196 195 196 198 199 197 193 190 190 190 191 191 190 189 186 182 178 177 177 179 184 191 197 202 209 217 224 232 239 251 266 279
150 225 275 244 190 214 239 252 313 306 223 238 222 227 155 205 243 94 215 223 181 257 268 205 175 153 153 160 172 181 183 187 191 195 196 197 200 200 201 200 198 198 198 204 203 198 199 201 202 202 201 202 203 203 203 205 206 206 205 205 204 203 203 204 203 203 202 202 203 202 201 199 195 193 192 192 192 193 197 198 199 199 197 197 198 199 201 205 210 213 218 226 236 247 259 275 290
186 197 222 222 198 229 255 282 300 274 237 248 215 240 233 212 186 148 238 236 222 240 72 114 134 140 155 168 179 186 187 193 196 197 199 202 202 202 205 205 203 203 202 207 209 206 203 202 203 204 205 206 206 207 208 208 209 209 209 209 209 208 209 209 208 209 209 210 209 207 205 203 200 197 193 191 192 192 196 200 205 211 213 214 214 212 212 213 216 216 218 223 237 257 268 278 288
216 187 188 202 236 244 255 284 261 255 258 199 184 264 277 236 182 259 249 239 223 149 92 114 128 148 173 177 184 188 191 196 196 198 200 202 202 204 208 209 208 208 208 208 211 213 208 203 204 206 208 209 209 210 211 212 212 213 214 213 213 213 213 213 212 213 215 216 215 215 212 210 209 205 201 199 197 195 197 198 204 214 220 224 223 219 218 217 217 219 221 228 244 265 282 293 297
194 165 177 218 250 260 181 254 258 279 262 193 196 260 295 298 253 253 257 254 174 128 106 145 150 173 186 186 192 191 195 198 197 198 198 198 201 206 209 210 212 212 212 211 212 216 215 210 207 209 211 211 212 212 214 215 216 218 218 218 217 217 217 216 216 217 218 220 221 220 219 219 217 215 212 210 208 205 206 205 205 213 220 226 224 217 215 214 216 220 226 238 255 275 296 311 314
125 138 120 272 281 286 241 256 266 333 268 194 177 238 309 346 256 239 250 293 163 147 147 184 179 193 191 192 196 195 203 202 200 198 195 198 202 205 208 210 212 213 214 214 215 217 219 217 212 212 213 214 215 215 217 219 220 221 221 222 222 222 221 220 220 220 221 223 224 224 225 224 223 224 221 219 219 217 219 218 218 219 217 218 214 209 211 214 215 220 231 245 261 279 302 319 323
82 121 134 298 343 298 245 237 208 131 214 187 156 293 309 236 234 250 276 150 135 141 169 202 206 209 199 199 198 202 208 202 201 204 203 204 206 207 209 211 212 214 216 217 217 219 222 221 217 215 214 215 217 218 219 221 223 224 224 225 225 226 225 224 224 224 224 225 226 228 229 229 229 229 228 228 227 226 228 228 230 227 219 217 214 215 221 223 223 228 241 257 274 288 304 321 324
91 118 108 330 7 305 239 187 156 167 194 172 161 279 276 244 246 251 250 163 125 145 197 204 212 213 205 205 204 211 209 202 205 210 209 209 210 210 211 213 213 215 217 217 219 220 223 224 222 219 216 216 220 221 221 222 224 226 227 228 228 229 229 229 229 228 228 229 229 232 233 234 234 233 234 234 233 232 231 232 236 233 224 223 224 226 230 233 237 243 255 268 284 293 303 316 318
163 178 62 47 23 276 266 186 158 182 204 148 156 235 261 263 263 250 227 213 159 190 215 207 214 212 207 209 208 218 213 211 215 214 213 213 214 212 213 215 214 215 217 217 219 221 222 224 224 222 220 220 221 222 223 224 227 228 230 232 232 232 231 232 232 231 231 232 233 235 235 237 238 238 238 238 238 237 234 236 239 234 225 223 228 234 237 242 246 253 262 274 287 292 301 310 315
85 178 277 8 194 258 295 271 180 196 225 130 157 217 259 262 269 272 152 249 228 226 227 215 220 214 210 214 214 225 225 222 225 223 220 219 218 216 215 216 215 216 217 218 220 221 222 225 226 225 223 223 223 225 226 227 229 229 231 234 234 234 234 234 234 234 234 234 236 237 238 238 239 241 241 241 241 239 239 242 244 239 230 226 230 237 244 249 254 258 262 273 285 291 300 308 314
27 155 208 216 201 244 305 287 226 222 115 160 202 222 258 261 259 260 158 183 219 245 249 233 228 226 217 217 218 227 235 232 231 229 226 223 221 219 218 218 218 219 220 221 221 221 223 226 227 226 225 225 225 227 228 228 229 230 232 234 235 236 236 236 235 236 235 236 237 238 240 239 239 240 241 242 243 243 245 246 248 245 240 240 243 247 252 255 256 258 264 276 284 287 289 294 304
78 165 215 221 194 198 266 276 280 218 148 217 223 219 245 272 266 258 210 173 185 226 247 244 235 235 226 223 225 227 230 231 231 228 226 224 222 220 220 220 220 221 222 223 223 224 225 227 228 228 227 227 227 229 230 230 230 230 231 234 237 238 237 237 237 237 237 237 238 240 241 241 240 240 241 242 243 245 247 248 250 252 252 254 253 256 259 259 261 261 265 275 280 278 276 285 297
175 194 208 220 192 208 232 254 267 140 176 209 198 221 249 268 277 267 229 170 183 218 232 239 239 236 231 227 229 228 227 231 234 230 227 225 223 222 221 221 222 222 222 223 224 225 226 227 228 228 228 228 229 229 230 230 228 228 231 234 238 240 240 239 238 238 238 239 239 240 242 243 242 242 242 241 242 243 244 245 247 249 256 260 260 261 260 259 261 260 260 265 274 275 271 286 296
192 183 181 173 182 235 237 243 267 179 156 220 215 226 240 246 262 265 248 172 198 234 242 245 243 240 237 230 233 233 230 236 237 234 232 228 224 224 223 222 223 223 222 223 224 225 225 225 226 227 229 229 228 228 228 227 225 227 230 232 235 239 240 240 240 240 239 239 240 240 241 243 243 243 243 242 242 243 242 244 244 243 246 251 252 254 261 263 260 258 254 256 272 276 271 283 293
184 145 169 183 188 249 258 250 287 229 170 244 227 223 239 237 244 255 254 168 214 248 251 249 244 239 236 230 234 233 234 242 244 240 235 230 228 226 224 223 223 223 223 223 223 224 225 224 224 226 228 228 227 225 225 224 224 225 227 229 233 236 238 240 242 243 243 242 241 241 242 243 243 244 244 243 244 245 245 245 246 246 247 248 246 249 268 272 264 261 250 245 266 268 265 278 286
164 154 173 210 209 244 256 244 300 326 186 267 254 226 245 242 242 252 247 197 224 234 230 241 241 238 239 238 241 237 241 252 253 246 235 225 225 225 223 223 221 221 222 222 224 225 224 224 224 226 227 227 226 226 225 225 226 227 226 228 232 234 236 238 241 244 246 247 245 244 243 243 244 244 244 244 244 246 247 246 246 248 250 253 248 248 262 264 260 264 250 242 257 256 254 265 271
155 139 146 216 226 259 272 262 307 24 174 274 308 262 255 251 246 254 252 231 234 230 220 232 235 237 240 236 240 242 251 261 252 247 235 221 220 220 219 220 220 222 223 224 224 224 223 223 224 226 226 226 226 226 226 226 228 229 229 230 231 231 234 238 241 244 247 249 249 248 245 243 244 244 243 243 243 245 245 246 248 248 248 252 248 245 252 253 251 259 253 247 252 250 247 255 259
153 145 159 215 201 190 261 278 305 294 170 273 319 304 272 264 259 258 252 236 240 241 230 233 232 231 237 236 240 238 243 250 248 249 237 217 215 214 215 218 219 221 223 224 223 222 223 224 225 225 225 225 225 226 228 229 230 231 231 233 234 233 235 240 242 243 245 247 248 248 247 246 244 244 243 241 242 243 244 245 247 247 246 245 244 244 249 254 250 250 257 257 253 247 245 252 256
191 181 176 185 173 203 237 291 318 319 342 331 318 299 273 252 250 255 254 230 234 247 239 241 242 237 246 258 259 239 235 239 239 247 241 209 208 213 215 218 218 218 221 222 221 221 223 225 226 224 224 225 225 227 228 228 227 228 229 230 231 231 233 234 234 236 239 240 243 244 246 247 247 245 244 242 240 240 243 246 246 248 249 241 236 246 254 255 252 248 253 257 254 250 247 251 254
216 214 183 173 174 191 229 350 2 358 321 310 211 270 269 249 241 245 252 238 237 251 244 243 244 241 247 258 256 244 241 242 235 244 244 210 210 217 218 218 216 218 222 223 222 223 224 225 225 224 224 224 225 226 226 225 223 223 223 220 220 219 221 224 226 229 232 234 238 241 244 247 248 247 246 245 242 238 239 243 244 246 249 244 238 244 256 255 251 248 248 249 251 254 250 248 249
219 217 176 162 151 137 114 45 38 192 266 283 142 232 269 287 256 244 250 248 246 254 263 260 252 244 238 238 247 246 243 243 239 243 242 221 215 214 218 219 217 220 225 224 223 225 225 225 225 224 224 224 224 223 222 222 221 221 221 220 219 218 219 223 227 231 232 234 237 240 243 245 247 247 245 246 244 241 239 238 239 237 239 244 239 236 252 260 251 245 245 246 250 256 251 243 244
226 203 158 154 148 155 179 139 190 222 269 293 130 191 271 277 257 237 237 254 265 270 269 268 253 242 236 232 242 245 241 240 238 242 241 230 223 217 219 222 221 225 226 223 223 225 225 225 225 224 225 224 223 222 220 220 220 220 220 220 221 222 223 225 227 231 232 234 236 238 241 243 244 244 243 243 243 244 243 240 240 238 237 241 235 236 256 256 247 242 241 242 247 255 251 243 244
234 183 147 154 157 173 185 159 248 291 353 285 225 108 270 267 248 226 230 245 254 251 244 248 245 239 233 228 237 241 243 241 232 240 244 237 232 228 228 228 227 229 227 224 225 227 226 225 224 223 224 224 222 221 220 220 220 220 219 219 221 223 225 226 227 230 231 232 232 234 236 238 240 241 240 240 240 242 243 244 244 243 244 240 232 241 252 244 243 246 242 240 243 250 249 244 244
187 145 110 95 99 94 108 169 228 17 300 256 206 145 265 273 231 182 226 242 240 240 233 236 242 243 235 226 233 239 245 244 231 236 244 244 243 240 240 239 235 233 229 226 227 226 225 224 222 222 223 223 222 220 219 219 220 219 219 220 221 223 224 225 226 227 229 227 226 228 230 233 235 236 236 238 241 241 240 241 242 243 246 241 235 245 246 239 243 247 244 242 243 249 249 243 244
129 115 81 64 50 45 58 92 99 194 269 252 177 167 209 283 237 171 201 227 220 226 231 238 243 248 246 235 231 236 241 243 238 244 252 255 256 254 251 246 241 237 233 228 226 225 224 223 221 222 223 223 221 220 218 219 219 219 220 221 221 223 222 221 222 223 224 223 222 223 225 229 233 234 235 236 239 240 239 240 240 239 242 241 241 248 246 241 244 243 245 244 241 247 246 241 243
128 103 98 85 16 29 42 5 76 213 253 260 199 180 174 247 245 176 241 268 220 217 219 228 234 235 239 238 234 236 242 246 245 251 258 261 261 256 249 245 242 237 231 227 225 223 221 220 219 220 221 221 219 219 218 218 219 219 221 222 223 224 222 221 221 221 221 220 220 221 222 225 228 230 233 235 237 238 238 240 239 236 237 235 236 244 244 243 245 244 246 242 239 241 237 233 237
129 104 115 111 34 53 174 244 165 232 253 276 292 264 204 245 245 184 252 272 241 228 222 225 227 227 235 239 241 243 244 248 248 248 253 255 253 247 241 241 241 234 229 226 224 221 219 217 216 217 219 220 217 217 218 218 219 220 221 222 223 224 223 223 223 223 221 221 220 219 219 220 222 225 227 231 237 238 236 236 236 234 234 230 229 236 242 243 244 241 240 241 241 235 227 227 228
149 152 150 149 158 164 200 205 212 251 253 269 277 206 248 272 281 208 229 242 237 232 236 240 235 236 245 251 261 268 257 244 241 245 251 251 242 238 238 238 237 234 230 227 224 220 218 216 214 215 219 219 216 216 217 217 219 221 222 222 223 223 223 223 224 224 223 222 221 220 220 221 221 224 227 233 239 240 237 235 234 232 233 231 226 228 237 242 243 238 233 236 239 227 221 222 214
176 170 157 175 179 175 192 191 199 222 235 296 267 202 210 232 270 239 233 258 275 259 249 256 254 250 258 279 284 271 262 252 239 236 241 246 241 236 237 237 236 236 233 228 225 221 218 216 215 215 217 217 216 216 216 217 220 221 222 223 223 223 223 223 224 225 225 225 225 224 225 225 225 228 233 239 242 240 237 236 234 231 230 229 226 226 235 238 238 238 231 227 228 220 214 205 194
199 151 138 210 197 146 147 183 180 152 144 251 220 231 222 201 274 277 256 263 278 271 270 270 259 257 268 284 271 255 255 256 244 235 237 244 243 237 237 237 236 236 233 230 226 221 219 217 216 216 217 217 217 217 218 219 220 221 222 222 223 222 223 223 224 225 226 227 229 228 229 230 231 234 238 241 241 240 239 236 232 229 225 222 221 226 235 233 230 232 223 215 214 208 198 185 176
153 147 176 204 155 117 115 213 27 90 192 241 204 250 280 313 282 274 257 255 262 267 269 258 256 264 268 261 257 249 250 256 254 246 244 246 242 236 234 229 226 227 228 229 228 225 222 220 218 218 218 218 219 219 220 221 221 221 222 222 223 222 222 223 224 226 228 229 230 231 232 233 234 237 239 241 241 239 238 235 229 225 220 216 216 222 232 229 222 219 210 202 197 188 179 172 168
139 180 186 142 77 97 110 164 360 65 222 264 230 241 263 278 266 287 271 241 253 262 261 258 269 277 269 261 260 258 254 259 268 262 261 266 255 237 227 214 209 209 215 221 224 225 224 223 222 220 219 219 220 221 221 222 221 221 221 222 222 223 223 225 226 228 229 228 229 230 231 233 235 237 239 239 238 235 233 230 223 219 214 213 217 220 223 218 207 200 193 188 181 175 170 165 167
146 177 173 134 159 207 151 155 188 156 223 272 287 267 254 212 230 289 342 217 235 260 267 275 275 259 251 260 265 270 270 267 267 256 248 256 249 233 215 200 197 196 201 207 210 215 218 220 222 222 223 223 221 221 220 220 221 221 222 223 223 224 225 226 228 229 229 228 228 230 230 232 234 235 236 234 232 229 225 220 217 215 209 206 211 213 207 200 192 184 179 173 170 171 171 167 169
61 138 166 160 179 191 172 159 168 165 194 243 296 319 266 219 202 196 231 238 227 242 260 265 261 245 235 251 260 266 263 250 247 236 229 229 232 228 205 187 183 183 193 200 204 211 212 215 218 219 223 224 222 222 220 220 221 221 223 224 224 225 225 226 227 226 227 227 228 229 230 230 231 231 230 229 227 223 218 213 211 209 203 196 196 194 188 184 179 174 171 168 167 172 173 171 174
147 158 177 192 169 142 165 176 144 137 164 201 271 287 262 246 187 184 212 230 225 229 242 248 251 242 234 247 256 257 254 247 240 229 226 220 218 220 194 176 173 175 188 194 199 208 208 210 213 213 216 218 218 220 219 220 221 220 222 222 222 223 223 223 224 224 224 226 227 228 227 228 228 226 224 223 221 216 214 211 203 196 192 186 181 176 174 172 169 167 169 170 172 174 174 174 180
177 175 181 186 171 128 161 207 200 118 160 179 179 265 267 244 191 196 205 217 225 229 236 247 251 235 235 249 250 248 252 249 241 226 219 205 189 197 186 175 172 173 182 190 196 201 203 206 209 208 211 212 213 214 215 216 216 216 218 219 219 220 219 220 220 220 221 222 223 224 224 223 223 222 221 220 216 209 206 201 191 183 181 178 172 168 168 171 171 171 172 173 175 179 180 179 176